contact:dominique.lefevre@mio.osupytheas.fr, maurice.libes@osupytheas.fr, didier.mallarino@osupytheas.fr
Project:EMSO http://www.emso-fr.org/EMSO-France
Depth: 2436.0 m
Title:EMSO Ligure Ouest : Data MII capteur MICROCAT
DateTime_Computer,Latitude,Longitude,Temperature,Conductivity,Pressure,DateTime_Instrument
DateTime_Computer,Latitude,Longitude,degC,S m-1,dbar,DateTime_Instrument
2023-09-11T00:01:55Z,42.805,6.029,13.3034,4.60097,2470.707,2023-9-11T02:04:16Z
2023-09-11T00:04:58Z,42.805,6.029,13.3033,4.60099,2470.693,2023-9-11T02:07:20Z
2023-09-11T00:08:01Z,42.805,6.029,13.3029,4.60098,2470.73,2023-9-11T02:10:23Z
2023-09-11T00:11:04Z,42.805,6.029,13.3036,4.60101,2470.707,2023-9-11T02:13:26Z
2023-09-11T00:14:07Z,42.805,6.029,13.3033,4.60097,2470.693,2023-9-11T02:16:29Z
2023-09-11T00:17:10Z,42.805,6.029,13.3034,4.60098,2470.693,2023-9-11T02:19:32Z
2023-09-11T00:20:13Z,42.805,6.029,13.3034,4.60097,2470.717,2023-9-11T02:22:35Z
2023-09-11T00:23:16Z,42.805,6.029,13.3034,4.60099,2470.73,2023-9-11T02:25:38Z
2023-09-11T00:26:20Z,42.805,6.029,13.3032,4.60099,2470.717,2023-9-11T02:28:41Z
2023-09-11T00:29:23Z,42.805,6.029,13.3036,4.60099,2470.67,2023-9-11T02:31:44Z
2023-09-11T00:32:26Z,42.805,6.029,13.3034,4.60101,2470.707,2023-9-11T02:34:47Z
2023-09-11T00:35:29Z,42.805,6.029,13.3034,4.60102,2470.717,2023-9-11T02:37:50Z
2023-09-11T00:38:32Z,42.805,6.029,13.3035,4.60102,2470.707,2023-9-11T02:40:53Z
2023-09-11T00:41:35Z,42.805,6.029,13.3033,4.60102,2470.656,2023-9-11T02:43:56Z
2023-09-11T00:44:38Z,42.805,6.029,13.3037,4.60099,2470.707,2023-9-11T02:47:00Z
2023-09-11T00:47:41Z,42.805,6.029,13.3032,4.60099,2470.717,2023-9-11T02:50:03Z
2023-09-11T00:50:44Z,42.805,6.029,13.3034,4.60099,2470.67,2023-9-11T02:53:06Z
2023-09-11T00:53:47Z,42.805,6.029,13.3039,4.60099,2470.693,2023-9-11T02:56:09Z
2023-09-11T00:56:50Z,42.805,6.029,13.3037,4.60104,2470.693,2023-9-11T02:59:12Z
2023-09-11T00:59:53Z,42.805,6.029,13.3034,4.60102,2470.693,2023-9-11T03:02:15Z
2023-09-11T01:02:56Z,42.805,6.029,13.3034,4.60099,2470.73,2023-9-11T03:05:18Z
2023-09-11T01:06:00Z,42.805,6.029,13.3037,4.60099,2470.707,2023-9-11T03:08:21Z
2023-09-11T01:09:03Z,42.805,6.029,13.3036,4.60102,2470.73,2023-9-11T03:11:24Z
2023-09-11T01:12:06Z,42.805,6.029,13.3038,4.60099,2470.693,2023-9-11T03:14:27Z
2023-09-11T01:15:09Z,42.805,6.029,13.3036,4.60100,2470.693,2023-9-11T03:17:30Z
2023-09-11T01:18:12Z,42.805,6.029,13.3031,4.60100,2470.73,2023-9-11T03:20:33Z
2023-09-11T01:21:15Z,42.805,6.029,13.3040,4.60101,2470.717,2023-9-11T03:23:37Z
2023-09-11T01:24:18Z,42.805,6.029,13.3036,4.60101,2470.717,2023-9-11T03:26:40Z
2023-09-11T01:27:21Z,42.805,6.029,13.3035,4.60100,2470.717,2023-9-11T03:29:43Z
2023-09-11T01:30:24Z,42.805,6.029,13.3036,4.60101,2470.707,2023-9-11T03:32:46Z
2023-09-11T01:33:27Z,42.805,6.029,13.3037,4.60101,2470.717,2023-9-11T03:35:49Z
2023-09-11T01:36:30Z,42.805,6.029,13.3036,4.60099,2470.717,2023-9-11T03:38:52Z
2023-09-11T01:39:33Z,42.805,6.029,13.3041,4.60102,2470.73,2023-9-11T03:41:55Z
2023-09-11T01:42:37Z,42.805,6.029,13.3036,4.60101,2470.73,2023-9-11T03:44:58Z
2023-09-11T01:45:40Z,42.805,6.029,13.3037,4.60101,2470.717,2023-9-11T03:48:01Z
2023-09-11T01:48:43Z,42.805,6.029,13.3036,4.60101,2470.717,2023-9-11T03:51:04Z
2023-09-11T01:51:46Z,42.805,6.029,13.3033,4.60103,2470.717,2023-9-11T03:54:07Z
2023-09-11T01:54:49Z,42.805,6.029,13.3035,4.60102,2470.74,2023-9-11T03:57:10Z
2023-09-11T01:57:52Z,42.805,6.029,13.3039,4.60104,2470.73,2023-9-11T04:00:13Z
2023-09-11T02:00:55Z,42.805,6.029,13.3040,4.60103,2470.693,2023-9-11T04:03:17Z
2023-09-11T02:03:58Z,42.805,6.029,13.3038,4.60102,2470.717,2023-9-11T04:06:20Z
2023-09-11T02:07:01Z,42.805,6.029,13.3036,4.60106,2470.717,2023-9-11T04:09:23Z
2023-09-11T02:10:04Z,42.805,6.029,13.3039,4.60101,2470.73,2023-9-11T04:12:26Z
2023-09-11T02:13:07Z,42.805,6.029,13.3043,4.60112,2470.73,2023-9-11T04:15:29Z
2023-09-11T02:16:10Z,42.805,6.029,13.3056,4.60110,2470.74,2023-9-11T04:18:32Z
2023-09-11T02:19:13Z,42.805,6.029,13.3055,4.60115,2470.717,2023-9-11T04:21:35Z
2023-09-11T02:22:17Z,42.805,6.029,13.3057,4.60117,2470.693,2023-9-11T04:24:38Z
2023-09-11T02:25:20Z,42.805,6.029,13.3052,4.60115,2470.73,2023-9-11T04:27:41Z
2023-09-11T02:28:23Z,42.805,6.029,13.3049,4.60126,2470.717,2023-9-11T04:30:44Z
2023-09-11T02:31:26Z,42.805,6.029,13.3058,4.60123,2470.754,2023-9-11T04:33:47Z
2023-09-11T02:34:29Z,42.805,6.029,13.3050,4.60122,2470.717,2023-9-11T04:36:50Z
2023-09-11T02:37:32Z,42.805,6.029,13.3048,4.60140,2470.74,2023-9-11T04:39:54Z
2023-09-11T02:40:35Z,42.805,6.029,13.3055,4.60138,2470.74,2023-9-11T04:42:57Z
2023-09-11T02:43:38Z,42.805,6.029,13.3050,4.60152,2470.754,2023-9-11T04:46:00Z
2023-09-11T02:46:41Z,42.805,6.029,13.3069,4.60145,2470.707,2023-9-11T04:49:03Z
2023-09-11T02:49:44Z,42.805,6.029,13.3045,4.60112,2470.717,2023-9-11T04:52:06Z
2023-09-11T02:52:47Z,42.805,6.029,13.3042,4.60115,2470.73,2023-9-11T04:55:09Z
2023-09-11T02:55:50Z,42.805,6.029,13.3058,4.60103,2470.703,2023-9-11T04:58:12Z
2023-09-11T02:58:53Z,42.805,6.029,13.3060,4.60144,2470.73,2023-9-11T05:01:15Z
2023-09-11T03:01:57Z,42.805,6.029,13.3050,4.60114,2470.74,2023-9-11T05:04:18Z
2023-09-11T03:05:00Z,42.805,6.029,13.3054,4.60140,2470.74,2023-9-11T05:07:21Z
2023-09-11T03:08:03Z,42.805,6.029,13.3054,4.60127,2470.74,2023-9-11T05:10:24Z
2023-09-11T03:11:06Z,42.805,6.029,13.3054,4.60132,2470.707,2023-9-11T05:13:27Z
2023-09-11T03:14:09Z,42.805,6.029,13.3048,4.60127,2470.754,2023-9-11T05:16:31Z
2023-09-11T03:17:12Z,42.805,6.029,13.3043,4.60103,2470.74,2023-9-11T05:19:34Z
2023-09-11T03:20:15Z,42.805,6.029,13.3052,4.60122,2470.74,2023-9-11T05:22:37Z
2023-09-11T03:23:18Z,42.805,6.029,13.3058,4.60120,2470.74,2023-9-11T05:25:40Z
2023-09-11T03:26:21Z,42.805,6.029,13.3053,4.60128,2470.763,2023-9-11T05:28:43Z
2023-09-11T03:29:24Z,42.805,6.029,13.3058,4.60126,2470.754,2023-9-11T05:31:46Z
2023-09-11T03:32:27Z,42.805,6.029,13.3050,4.60122,2470.707,2023-9-11T05:34:49Z
2023-09-11T03:35:30Z,42.805,6.029,13.3061,4.60119,2470.74,2023-9-11T05:37:52Z
2023-09-11T03:38:34Z,42.805,6.029,13.3054,4.60169,2470.754,2023-9-11T05:40:55Z
2023-09-11T03:41:37Z,42.805,6.029,13.3059,4.60130,2470.763,2023-9-11T05:43:58Z
2023-09-11T03:44:40Z,42.805,6.029,13.3050,4.60150,2470.777,2023-9-11T05:47:01Z
2023-09-11T03:47:43Z,42.805,6.029,13.3062,4.60149,2470.74,2023-9-11T05:50:04Z
2023-09-11T03:50:46Z,42.805,6.029,13.3067,4.60155,2470.74,2023-9-11T05:53:07Z
2023-09-11T03:53:49Z,42.805,6.029,13.3055,4.60162,2470.754,2023-9-11T05:56:11Z
2023-09-11T03:56:52Z,42.805,6.029,13.3060,4.60142,2470.717,2023-9-11T05:59:14Z
2023-09-11T03:59:55Z,42.805,6.029,13.3057,4.60134,2470.763,2023-9-11T06:02:17Z
2023-09-11T04:02:58Z,42.805,6.029,13.3056,4.60122,2470.74,2023-9-11T06:05:20Z
2023-09-11T04:06:01Z,42.805,6.029,13.3054,4.60126,2470.726,2023-9-11T06:08:23Z
2023-09-11T04:09:04Z,42.805,6.029,13.3048,4.60147,2470.777,2023-9-11T06:11:26Z
2023-09-11T04:12:07Z,42.805,6.029,13.3056,4.60129,2470.763,2023-9-11T06:14:29Z
2023-09-11T04:15:11Z,42.805,6.029,13.3071,4.60155,2470.777,2023-9-11T06:17:32Z
2023-09-11T04:18:14Z,42.805,6.029,13.3073,4.60117,2470.763,2023-9-11T06:20:35Z
2023-09-11T04:21:17Z,42.805,6.029,13.3056,4.60114,2470.777,2023-9-11T06:23:38Z
2023-09-11T04:24:20Z,42.805,6.029,13.3057,4.60122,2470.763,2023-9-11T06:26:41Z
2023-09-11T04:27:23Z,42.805,6.029,13.3069,4.60152,2470.754,2023-9-11T06:29:44Z
